RH
40 39 38 37 36 35 34 34 33 33 32 31 30 28 27 25 24 22 21 21 21 21 21 21 21 21 21 20 20 20 20 21 21 22 23 23 23 23 24 25 26 27 29 30 31 32 32 33 33 33 33 34 34 34 34 34 34 34 34 34 34 34 34 34 34 34 34 34 34 34 34 34 34 34 34 35 35 35 35 35 35 35 36 36 36 36
41 40 39 38 38 37 36 35 34 33 32 31 29 28 26 24 22 21 21 21 21 21 22 22 22 21 21 21 21 21 21 22 23 23 24 24 24 25 26 27 27 28 28 29 29 30 31 32 33 34 34 34 34 34 34 34 34 34 34 34 34 34 34 34 34 34 34 35 35 34 34 34 34 35 35 35 35 35 35 36 36 36 36 36 36 37
42 41 40 40 39 39 37 35 34 33 32 31 29 27 25 24 23 22 21 22 22 22 23 23 23 22 22 22 22 22 23 24 24 25 25 26 26 26 27 27 28 28 28 28 29 29 30 31 32 33 35 35 35 35 35 35 35 35 34 35 34 34 34 34 34 35 35 35 35 35 35 35 35 35 35 35 36 36 36 36 36 37 37 37 37 37
42 42 43 42 40 39 37 35 34 33 32 31 29 28 26 24 24 23 23 23 23 24 24 24 24 24 23 23 24 24 25 25 26 26 27 27 27 27 27 27 28 28 28 29 29 29 30 31 32 33 35 35 35 35 35 35 35 35 35 35 35 35 35 35 35 35 35 35 35 35 35 35 35 35 36 36 36 37 37 37 37 37 38 38 38 39
44 44 44 43 41 39 37 36 34 34 32 31 29 28 26 25 25 24 25 25 25 25 25 25 25 25 25 25 25 26 26 27 27 27 27 27 27 27 27 28 28 28 29 29 30 30 31 32 33 34 35 35 35 35 35 35 35 35 35 35 35 35 35 35 35 35 35 35 35 35 35 36 36 36 36 37 38 38 39 39 39 39 39 40 40 41
45 46 45 43 41 39 36 36 35 34 32 31 29 27 26 26 26 26 26 27 27 27 27 27 27 27 27 27 27 27 27 27 27 27 27 27 27 28 28 28 29 29 30 31 32 32 32 33 34 34 34 34 35 35 35 35 35 35 35 35 35 35 35 35 35 35 35 36 36 36 36 36 36 36 37 38 39 40 40 40 40 41 41 42 43 44
47 46 44 42 40 38 36 35 35 34 31 30 28 27 26 26 27 28 29 30 30 30 29 28 28 27 27 27 27 27 27 27 27 27 27 27 28 28 29 29 30 31 31 33 33 34 34 34 34 34 34 34 34 34 34 34 34 34 34 34 34 34 34 34 34 34 34 34 34 35 35 35 35 35 36 37 39 40 41 41 42 42 43 44 45 46
47 45 43 41 39 38 36 35 34 32 30 30 29 28 28 28 29 29 31 32 32 31 30 29 28 27 26 26 26 26 26 26 26 26 27 27 28 28 29 30 31 32 33 34 34 34 34 34 34 34 33 33 32 32 32 32 32 32 31 31 32 31 31 31 31 31 32 32 33 33 33 34 34 34 34 36 38 40 42 42 43 44 44 46 47 48
46 44 42 40 39 37 36 35 33 31 31 31 31 31 30 31 31 31 32 32 32 31 30 29 27 26 25 25 25 26 26 27 27 27 27 28 29 29 30 31 32 33 34 34 34 34 33 33 33 32 32 31 30 30 30 30 30 30 29 29 29 30 29 30 30 30 31 31 32 33 33 33 33 33 34 35 37 39 42 43 44 45 46 47 48 49
44 42 40 39 38 36 35 34 33 32 33 33 33 33 33 33 33 33 32 32 31 30 29 28 27 26 25 25 25 26 26 27 27 28 29 29 30 31 32 32 33 33 33 34 33 33 32 32 31 31 30 29 29 29 29 29 29 29 29 29 29 29 29 30 30 30 31 31 32 32 33 33 33 34 35 36 37 39 41 43 45 46 47 48 49 49
42 41 39 38 37 37 36 35 35 34 35 35 34 34 33 33 33 33 32 32 30 29 28 27 27 26 26 25 26 26 27 27 28 29 30 30 31 32 33 33 33 33 33 32 32 31 30 30 30 30 30 29 29 29 29 29 29 29 29 29 29 29 30 30 30 30 31 31 32 33 33 34 35 35 35 36 37 38 39 42 44 46 47 48 49 49
41 39 38 37 37 37 37 36 36 36 35 35 34 33 33 33 33 33 32 31 30 29 28 27 27 27 27 27 27 28 28 29 29 30 30 31 32 32 33 33 33 33 32 31 31 30 30 30 30 30 30 29 29 29 30 30 30 30 30 30 30 30 30 30 31 31 32 33 34 34 34 35 36 36 36 36 37 37 38 40 42 44 46 47 48 49
40 39 38 38 38 37 37 37 36 36 35 34 33 33 33 33 32 32 31 31 30 29 28 27 27 28 28 29 29 30 30 30 31 31 32 32 33 33 33 33 33 32 32 31 31 31 31 30 31 30 30 30 30 30 31 31 31 31 31 31 31 31 31 31 32 33 34 34 35 35 35 36 37 37 37 37 37 37 38 39 41 43 45 46 47 48
39 39 38 38 38 38 37 37 36 35 34 34 33 33 33 32 32 31 31 30 29 29 28 28 28 29 29 30 31 32 32 32 32 32 33 33 34 34 34 34 34 34 33 33 32 32 32 32 32 31 31 31 31 32 32 32 32 32 32 32 32 32 32 32 33 34 35 35 36 36 36 37 37 38 37 37 37 38 38 39 40 42 43 45 46 47
39 39 39 38 38 38 37 36 35 34 33 34 33 33 33 32 32 31 30 29 29 28 28 28 29 29 30 31 32 33 34 34 33 33 33 34 34 35 36 36 36 35 35 34 34 33 33 33 33 33 33 33 33 33 34 34 34 34 34 33 33 34 34 34 35 35 36 36 37 37 38 38 38 39 38 38 38 38 38 39 40 41 42 44 45 46
39 39 39 38 38 37 36 35 34 34 33 33 33 33 32 32 31 30 30 29 29 29 29 29 29 29 30 32 33 34 35 35 35 35 35 35 35 37 38 38 38 37 36 36 36 35 35 35 35 35 35 35 35 35 36 36 36 36 36 35 35 35 35 36 36 37 37 38 38 38 39 39 39 40 39 39 39 39 40 40 41 42 42 43 44 45
39 39 39 38 37 36 35 34 34 34 34 33 33 33 32 31 31 30 30 30 30 30 30 30 31 31 31 32 34 36 37 37 37 37 37 37 37 38 40 41 41 40 38 38 38 38 38 38 38 38 38 38 38 38 38 38 38 38 38 38 38 37 37 37 38 38 38 39 39 40 40 40 40 41 40 41 40 40 41 41 42 42 43 43 44 44
39 39 38 37 36 35 34 34 34 34 34 33 33 32 31 31 30 30 30 30 31 31 31 32 32 33 33 34 35 37 39 39 39 39 39 39 39 40 42 43 43 43 42 41 40 40 41 41 41 41 41 41 41 41 41 41 41 41 40 40 40 39 39 39 39 40 40 40 40 41 41 41 42 42 42 42 42 42 42 43 43 44 44 44 44 44
39 38 37 36 35 34 34 34 34 34 34 33 33 32 31 31 30 31 31 31 32 32 33 33 34 34 35 36 37 38 41 41 41 41 41 41 41 42 44 46 46 45 44 43 43 43 44 44 43 43 43 44 44 44 44 44 44 43 43 43 42 42 41 41 42 42 42 42 42 42 42 42 42 43 42 43 43 43 44 44 44 45 45 45 44 44
38 37 35 35 34 34 34 34 34 34 34 33 32 31 31 31 31 31 32 32 33 33 34 35 35 36 37 38 39 40 42 43 44 44 43 43 43 43 45 47 48 47 46 46 46 46 46 46 46 46 46 46 46 47 47 47 47 46 46 45 44 44 43 43 43 43 44 43 43 43 43 43 43 43 44 44 44 45 45 45 45 46 45 45 44 44
36 35 34 34 34 34 34 34 34 34 33 33 32 32 32 32 32 32 33 33 34 35 35 36 37 38 38 39 40 42 43 45 46 46 46 45 44 45 46 48 49 49 48 47 47 48 48 48 48 48 48 48 49 50 50 50 50 49 48 47 46 46 45 45 44 44 43 42 43 43 43 43 44 44 45 45 46 46 46 46 46 46 46 45 45 43
35 34 34 34 34 34 34 34 34 34 33 33 32 33 33 33 33 33 34 35 35 36 37 37 38 39 40 41 42 43 45 47 49 49 49 47 46 45 46 49 50 50 49 49 49 49 50 50 50 50 51 51 52 52 53 53 52 51 50 49 48 47 46 45 44 44 43 42 43 43 43 43 44 44 45 45 46 46 47 47 47 46 46 46 45 44
34 34 34 34 34 34 34 33 33 33 33 33 33 33 34 34 34 35 35 36 37 38 38 39 39 40 40 41 42 43 45 48 50 52 52 50 49 47 47 50 51 51 50 49 50 51 52 52 53 53 53 54 55 55 55 55 54 53 52 51 50 49 47 46 45 44 44 44 44 44 44 44 44 44 45 45 45 46 46 46 46 46 46 46 45 44
33 33 33 34 34 34 34 33 33 33 33 33 34 34 34 35 36 37 37 38 39 39 40 39 39 39 40 41 43 45 47 50 53 54 54 52 50 48 48 50 50 50 49 49 50 52 53 54 55 55 56 57 58 58 58 57 56 55 54 52 51 50 48 47 46 46 45 45 45 45 45 44 44 44 43 44 44 45 45 46 46 46 46 46 45 44
32 32 33 33 33 34 34 33 33 33 34 34 35 35 35 36 37 38 39 40 40 41 40 40 40 40 41 42 45 47 49 52 54 55 54 52 50 48 48 49 50 50 49 49 51 52 54 55 56 58 59 59 60 60 60 59 58 56 55 53 52 51 50 48 47 46 46 45 45 44 44 43 43 43 43 44 44 45 45 46 46 46 46 46 45 44
32 33 34 34 34 34 34 34 34 35 35 36 37 38 38 38 39 39 40 41 41 41 40 41 41 42 43 45 47 49 51 53 54 54 53 51 49 48 47 49 50 50 50 50 51 53 55 56 57 59 60 61 61 61 61 60 59 58 57 55 54 52 51 50 48 47 46 45 45 44 44 44 44 44 44 45 45 46 46 46 46 46 46 45 45 44
32 33 33 33 33 33 34 34 35 36 37 38 39 39 40 40 40 40 40 40 40 41 41 42 44 45 46 48 49 50 51 52 52 52 51 50 49 48 48 49 50 51 52 52 52 54 56 57 58 60 61 61 61 61 61 61 60 59 58 57 56 54 53 51 50 49 48 47 46 45 45 45 45 45 45 46 46 46 46 46 46 46 46 45 44 43
31 31 31 31 32 33 34 35 36 36 37 38 39 40 40 41 40 40 40 41 41 42 44 45 47 48 49 49 49 49 49 50 50 50 50 49 49 49 49 51 52 53 53 53 53 54 56 58 59 60 61 61 62 62 62 62 62 61 60 59 57 56 55 53 52 51 49 48 47 46 46 46 46 46 47 48 48 48 47 47 46 46 45 45 44 43
30 30 31 31 32 33 34 35 36 36 37 38 39 39 41 41 41 41 41 42 43 45 47 49 50 50 50 49 49 48 48 48 49 49 50 50 50 50 51 53 54 55 55 55 54 54 55 57 59 60 61 61 62 63 63 63 63 62 61 60 59 58 57 56 54 52 51 49 48 48 48 48 48 49 49 50 50 49 49 48 48 47 46 45 44 43
30 30 31 31 32 33 34 34 35 36 37 38 39 39 41 41 42 43 43 45 47 49 50 51 52 52 51 50 49 47 47 47 48 50 51 51 51 52 52 54 55 56 57 56 55 54 54 55 57 60 61 62 62 63 63 63 63 62 62 61 60 59 58 57 55 53 52 50 50 49 49 50 50 51 51 52 52 52 51 50 50 49 47 46 44 43
30 30 30 31 32 33 34 35 36 37 37 38 39 39 40 42 43 44 46 48 51 52 53 53 53 53 52 50 49 48 47 47 48 51 52 53 53 53 54 55 56 57 58 58 57 56 55 55 56 59 61 62 62 62 63 63 63 62 62 61 60 58 57 57 56 54 53 51 51 51 51 52 52 53 53 54 54 53 53 52 52 51 49 48 46 44
29 30 30 31 32 33 35 36 36 37 38 38 39 40 41 43 45 47 49 52 54 55 55 54 54 53 53 51 50 49 49 48 50 52 53 53 53 54 55 56 57 57 58 59 59 58 57 56 56 57 60 61 62 62 62 62 62 62 61 60 58 57 56 56 56 54 53 53 52 52 53 53 54 55 55 55 55 54 53 53 53 53 52 50 48 46
29 30 31 32 33 34 36 36 37 37 38 38 39 40 42 44 47 50 52 55 56 56 56 55 55 54 54 53 52 51 50 50 52 53 55 55 55 55 56 57 57 58 59 60 60 60 60 58 58 57 58 59 60 61 61 61 61 61 60 59 58 56 55 55 55 55 54 54 54 54 54 55 55 56 56 56 55 54 54 53 53 53 53 52 50 48
30 31 32 33 35 36 36 37 37 38 39 39 41 42 44 46 49 52 55 56 57 57 57 56 56 56 56 55 54 53 52 52 54 56 57 56 56 56 56 57 58 58 59 59 60 61 60 60 59 58 57 57 58 59 60 60 60 60 59 58 57 56 55 55 55 56 56 56 56 55 55 56 56 56 56 56 55 54 54 53 53 53 53 52 51 50
32 33 34 35 36 36 37 37 38 39 40 42 43 44 45 48 50 53 56 57 57 57 58 58 58 59 58 58 57 56 55 54 56 58 59 58 58 58 57 58 59 59 59 59 59 59 59 59 59 59 58 57 57 57 59 59 60 59 58 58 57 57 56 57 57 58 58 58 57 57 56 56 56 56 55 55 54 54 53 53 53 54 54 53 52 51
33 34 35 36 37 37 37 38 39 41 42 43 44 46 47 49 51 53 55 56 57 57 58 59 60 60 61 60 60 59 58 58 58 59 60 60 60 60 59 60 60 60 60 59 59 59 59 58 58 57 57 57 56 55 56 57 58 58 57 57 57 57 57 58 59 59 59 58 58 57 56 56 56 55 54 53 53 53 53 53 54 54 55 54 53 52
35 36 37 37 38 38 39 40 41 43 44 45 45 46 47 50 52 54 55 55 56 57 59 60 61 61 62 62 62 61 61 60 60 61 62 62 63 62 62 62 62 62 62 62 62 61 60 59 58 58 57 57 56 55 54 54 55 55 56 56 57 58 58 58 59 59 59 58 57 56 55 55 55 54 53 52 51 51 51 52 52 53 53 53 53 52
36 37 37 38 39 40 41 42 43 44 45 45 46 46 48 50 52 53 55 55 56 58 59 60 61 62 62 62 63 62 62 62 62 62 63 64 65 65 65 65 64 65 65 65 66 66 65 63 62 62 60 60 59 58 57 57 56 56 57 57 58 59 59 60 60 59 59 58 57 56 56 55 55 54 53 52 51 51 51 51 51 52 52 52 52 51
37 38 39 40 41 42 43 44 45 45 45 45 46 47 48 50 52 54 55 56 57 58 60 61 62 62 63 63 64 64 64 64 63 64 65 66 67 67 67 67 68 68 69 69 70 70 70 69 69 68 67 66 65 65 64 64 64 64 64 65 66 66 67 67 67 66 65 64 63 61 60 59 58 57 56 54 54 53 53 53 53 53 52 52 51 50
39 40 40 41 42 44 45 46 46 45 45 45 46 47 49 51 53 54 56 57 58 60 61 62 63 64 64 65 65 66 66 65 65 66 66 68 68 69 69 70 70 70 71 72 72 73 73 73 72 71 70 71 71 70 70 70 70 71 72 72 73 73 73 73 73 72 72 71 70 68 66 65 63 62 60 59 58 58 58 57 56 55 54 53 52 51
41 41 42 42 43 44 45 45 45 46 46 46 47 48 50 52 54 56 56 58 59 60 62 63 64 65 65 66 67 68 67 67 67 67 68 69 70 70 70 71 71 72 72 73 73 74 74 73 73 73 73 73 73 73 73 73 73 74 74 75 75 75 74 75 75 75 74 74 73 72 71 70 68 67 66 65 65 64 63 62 61 59 57 56 55 56
43 43 43 44 44 45 45 46 46 46 46 46 47 49 51 53 56 57 58 59 60 61 63 65 66 67 68 68 68 69 69 69 69 68 69 70 70 71 72 72 72 72 73 73 73 73 73 73 73 73 74 75 75 75 75 75 76 76 77 77 76 76 75 75 75 75 77 76 75 75 75 74 73 73 72 71 71 69 68 67 66 65 64 62 62 62
44 44 44 45 45 46 46 47 47 47 47 47 47 49 52 55 57 59 61 61 62 63 65 66 68 69 70 70 70 70 70 70 70 70 70 70 71 72 72 73 73 73 72 72 72 71 71 72 73 73 74 76 76 77 76 77 77 78 78 79 79 78 78 76 75 76 77 77 77 77 77 77 76 76 75 75 74 73 72 71 71 70 69 68 67 67
45 45 46 46 46 47 48 48 48 47 47 46 47 49 53 56 58 60 62 63 63 64 66 68 70 71 72 72 72 72 71 71 70 71 71 71 72 72 73 73 73 73 72 72 72 71 71 71 72 72 74 75 76 77 77 78 78 79 79 80 80 79 79 78 78 78 78 78 78 77 77 77 77 77 76 76 75 74 73 73 72 71 69 69 68 67
46 47 47 47 48 48 48 48 48 47 47 47 48 50 54 57 59 61 63 63 64 65 67 70 71 72 72 72 72 72 72 71 71 72 72 73 73 73 74 73 74 74 74 73 73 72 72 72 71 71 72 74 75 76 77 78 79 79 80 80 81 81 81 80 80 79 79 79 78 77 77 77 76 76 76 75 74 72 72 71 69 68 67 66 65 64
47 48 48 48 48 48 48 48 48 47 47 47 49 51 55 57 60 62 63 64 66 67 69 71 72 73 73 72 72 72 72 72 73 73 74 74 74 74 75 75 75 76 76 75 75 74 73 72 71 71 71 72 73 75 76 78 79 80 80 80 81 81 80 79 79 78 78 78 77 76 75 75 74 74 73 72 70 69 67 66 65 64 63 63 62 62
48 48 48 48 48 48 48 48 49 48 48 49 50 52 55 58 60 62 64 66 67 69 70 72 72 73 73 73 73 72 73 73 74 74 75 76 75 76 76 77 77 78 78 77 77 77 76 74 73 71 70 71 71 72 74 76 78 79 78 79 79 79 79 77 76 74 74 74 73 73 72 71 71 70 69 68 67 65 64 63 62 62 62 62 62 62
48 49 48 48 48 48 49 49 50 50 50 50 51 52 55 58 61 63 65 67 69 71 72 72 73 73 73 73 73 73 73 73 74 75 76 76 77 77 78 78 79 79 79 79 79 78 78 77 76 74 72 71 71 71 72 73 76 77 77 77 77 77 76 75 73 72 72 70 69 68 68 67 67 67 66 65 65 63 62 62 61 62 62 62 63 63
49 49 49 49 49 49 50 50 51 52 52 51 52 53 54 58 61 64 67 69 71 72 72 73 73 73 73 73 72 72 72 73 74 75 75 76 77 78 78 79 79 80 80 79 79 79 78 78 77 76 75 73 72 71 70 71 73 75 77 77 76 76 76 75 74 73 72 71 69 68 67 66 65 65 65 64 64 63 62 61 61 62 63 63 64 64
49 49 49 49 49 50 51 52 53 53 53 53 53 53 54 57 60 64 68 70 72 73 73 73 73 73 73 73 73 73 73 73 74 74 75 76 77 78 78 78 79 80 79 79 79 79 79 78 77 77 77 75 75 73 71 71 72 74 76 77 77 77 76 76 75 75 74 73 72 71 69 68 67 66 66 65 65 64 63 63 63 63 63 64 65 64
50 50 49 49 50 50 52 53 54 55 55 54 54 54 54 56 59 63 67 70 72 74 74 74 74 74 74 74 74 73 73 73 73 74 74 75 76 77 77 78 78 78 78 78 79 79 79 78 77 76 76 76 76 76 74 73 72 73 74 76 77 78 78 78 77 76 76 76 75 74 73 72 71 70 69 68 68 67 66 66 66 65 65 66 66 65